�������l�o���
Date,Time,MP-1(��Sv/h),MP-2(��Sv/h),MP-3(��Sv/h),MP-4(��Sv/h),MP-5(��Sv/h),MP-6(��Sv/h),MP-7(��Sv/h),����,����(m/s),���J
2022/12/24,00:00,0.153,0.137,0.214,0.210,0.212,0.121,0.078,��쓌,4.4,��
2022/12/24,00:10,0.153,0.138,0.214,0.211,0.212,0.121,0.078,��쓌,4.2,��
2022/12/24,00:20,0.152,0.138,0.213,0.210,0.213,0.121,0.077,��,4.0,��
2022/12/24,00:30,0.152,0.138,0.213,0.211,0.211,0.122,0.078,��쓌,4.8,��
2022/12/24,00:40,0.153,0.138,0.213,0.210,0.212,0.122,0.078,��,4.2,��
2022/12/24,00:50,0.152,0.139,0.213,0.210,0.212,0.121,0.078,��,3.7,��
2022/12/24,01:00,0.152,0.138,0.213,0.211,0.212,0.120,0.077,��쓌,4.9,��
2022/12/24,01:10,0.152,0.138,0.213,0.210,0.212,0.121,0.078,��쓌,4.5,��
2022/12/24,01:20,0.153,0.138,0.213,0.211,0.211,0.121,0.078,��쓌,4.3,��
2022/12/24,01:30,0.152,0.138,0.213,0.211,0.210,0.121,0.077,��쓌,3.3,��
2022/12/24,01:40,0.152,0.139,0.213,0.210,0.211,0.121,0.077,��쓌,4.1,��
2022/12/24,01:50,0.152,0.137,0.213,0.210,0.211,0.121,0.078,��쓌,4.2,��
2022/12/24,02:00,0.152,0.137,0.213,0.211,0.212,0.121,0.078,��쓌,3.7,��
2022/12/24,02:10,0.151,0.137,0.212,0.211,0.211,0.121,0.078,��쓌,4.4,��
2022/12/24,02:20,0.152,0.138,0.213,0.211,0.211,0.121,0.078,��쓌,4.1,��
2022/12/24,02:30,0.151,0.137,0.213,0.211,0.211,0.121,0.078,��쓌,4.0,��
2022/12/24,02:40,0.153,0.138,0.213,0.211,0.213,0.121,0.078,��쓌,3.1,��
2022/12/24,02:50,0.153,0.138,0.213,0.210,0.211,0.121,0.078,��쓌,3.3,��
2022/12/24,03:00,0.152,0.137,0.213,0.210,0.211,0.121,0.077,��쓌,2.7,��
2022/12/24,03:10,0.151,0.138,0.214,0.211,0.211,0.121,0.077,��쓌,3.3,��
2022/12/24,03:20,0.152,0.137,0.214,0.211,0.210,0.121,0.078,��,4.0,��
2022/12/24,03:30,0.152,0.138,0.214,0.211,0.212,0.121,0.077,��쓌,2.8,��
2022/12/24,03:40,0.151,0.138,0.212,0.211,0.211,0.120,0.078,��쓌,2.6,��
2022/12/24,03:50,0.153,0.138,0.213,0.210,0.211,0.120,0.077,��,1.8,��
2022/12/24,04:00,0.151,0.138,0.213,0.210,0.211,0.121,0.077,�쓌,1.3,��
2022/12/24,04:10,0.151,0.138,0.214,0.210,0.211,0.121,0.078,��,3.4,��
2022/12/24,04:20,0.152,0.139,0.214,0.211,0.211,0.122,0.078,��,4.2,��
2022/12/24,04:30,0.152,0.138,0.212,0.211,0.212,0.120,0.077,��쐼,3.6,��
2022/12/24,04:40,0.152,0.138,0.212,0.210,0.210,0.121,0.078,��쐼,3.7,��
2022/12/24,04:50,0.152,0.138,0.213,0.210,0.210,0.122,0.077,��,2.5,��
2022/12/24,05:00,0.151,0.137,0.213,0.211,0.210,0.121,0.078,��쓌,4.8,��
2022/12/24,05:10,0.152,0.137,0.212,0.210,0.211,0.121,0.077,��,5.4,��
2022/12/24,05:20,0.151,0.138,0.213,0.209,0.211,0.121,0.078,�쐼,4.8,��
2022/12/24,05:30,0.152,0.138,0.213,0.210,0.210,0.121,0.078,���쐼,3.6,��
2022/12/24,05:40,0.151,0.138,0.213,0.210,0.210,0.120,0.077,��쐼,3.1,��
2022/12/24,05:50,0.152,0.138,0.214,0.210,0.212,0.123,0.078,��,5.2,��
2022/12/24,06:00,0.152,0.138,0.213,0.211,0.210,0.122,0.077,��,5.8,��
2022/12/24,06:10,0.152,0.138,0.213,0.210,0.212,0.122,0.077,��,4.9,��
2022/12/24,06:20,0.152,0.138,0.213,0.211,0.210,0.122,0.078,��,3.7,��
2022/12/24,06:30,0.152,0.138,0.214,0.210,0.212,0.122,0.078,��쓌,4.8,��
2022/12/24,06:40,0.153,0.137,0.214,0.210,0.211,0.122,0.078,��쓌,4.9,��
2022/12/24,06:50,0.153,0.138,0.213,0.212,0.211,0.122,0.078,��쓌,4.5,��
2022/12/24,07:00,0.152,0.138,0.213,0.211,0.212,0.122,0.079,��,3.7,��
2022/12/24,07:10,0.151,0.138,0.213,0.211,0.211,0.122,0.078,�쐼,5.8,��
2022/12/24,07:20,0.152,0.138,0.214,0.210,0.211,0.121,0.078,���쐼,8.1,��
2022/12/24,07:30,0.153,0.139,0.213,0.210,0.211,0.123,0.079,���쐼,7.5,��
2022/12/24,07:40,0.152,0.138,0.212,0.210,0.212,0.122,0.078,���쐼,8.4,��
2022/12/24,07:50,0.152,0.138,0.214,0.211,0.212,0.123,0.078,���쐼,7.4,��
2022/12/24,08:00,0.151,0.137,0.214,0.210,0.212,0.122,0.077,���쐼,6.8,��
2022/12/24,08:10,0.152,0.138,0.213,0.210,0.211,0.121,0.078,���쐼,4.1,��
2022/12/24,08:20,0.153,0.139,0.213,0.211,0.211,0.122,0.078,���쐼,4.9,��
2022/12/24,08:30,0.153,0.137,0.213,0.211,0.211,0.122,0.079,�쐼,3.0,��
2022/12/24,08:40,0.152,0.138,0.214,0.211,0.211,0.122,0.077,��,1.3,��
2022/12/24,08:50,0.150,0.138,0.213,0.210,0.210,0.122,0.078,��,3.5,��
2022/12/24,09:00,0.152,0.138,0.213,0.209,0.211,0.121,0.077,��,4.0,��
2022/12/24,09:10,0.152,0.138,0.213,0.210,0.211,0.121,0.078,���k��,3.8,��
2022/12/24,09:20,0.152,0.138,0.214,0.211,0.211,0.122,0.077,�k��,3.4,��
2022/12/24,09:30,0.151,0.138,0.214,0.209,0.211,0.122,0.077,���쐼,2.7,��
2022/12/24,09:40,0.151,0.138,0.213,0.210,0.211,0.122,0.078,��,5.0,��
2022/12/24,09:50,0.151,0.138,0.214,0.211,0.211,0.121,0.078,��,3.1,��
2022/12/24,10:00,0.152,0.137,0.213,0.209,0.211,0.121,0.078,��,4.3,��
2022/12/24,10:10,0.151,0.137,0.213,0.209,0.211,0.122,0.078,��,6.0,��
2022/12/24,10:20,0.151,0.136,0.212,0.210,0.211,0.121,0.077,��,5.1,��
2022/12/24,10:30,0.151,0.137,0.213,0.209,0.210,0.121,0.077,���k��,2.6,��
2022/12/24,10:40,0.151,0.137,0.212,0.210,0.210,0.121,0.077,�k��,3.9,��
2022/12/24,10:50,0.151,0.136,0.211,0.209,0.211,0.121,0.077,�k,1.3,��
2022/12/24,11:00,0.152,0.137,0.212,0.210,0.213,0.121,0.077,���쐼,4.8,��
2022/12/24,11:10,0.151,0.137,0.212,0.210,0.211,0.121,0.077,��,4.6,��
2022/12/24,11:20,0.151,0.138,0.212,0.211,0.210,0.122,0.077,��,5.2,��
2022/12/24,11:30,0.152,0.137,0.212,0.210,0.212,0.122,0.077,��,7.3,��
2022/12/24,11:40,0.151,0.138,0.213,0.210,0.211,0.122,0.078,��,4.2,��
2022/12/24,11:50,0.151,0.137,0.213,0.211,0.212,0.122,0.078,��,5.4,��
2022/12/24,12:00,0.150,0.137,0.213,0.211,0.210,0.121,0.076,��,5.2,�L
2022/12/24,12:10,0.151,0.136,0.213,0.211,0.211,0.122,0.078,��,5.9,��
2022/12/24,12:20,0.152,0.137,0.213,0.210,0.210,0.121,0.077,��,4.4,��
2022/12/24,12:30,0.152,0.137,0.213,0.209,0.211,0.122,0.076,���k��,8.2,��
2022/12/24,12:40,0.151,0.138,0.212,0.209,0.211,0.121,0.077,���k��,6.7,��
2022/12/24,12:50,0.151,0.137,0.213,0.209,0.210,0.121,0.076,���k��,9.0,��
2022/12/24,13:00,0.152,0.137,0.212,0.210,0.213,0.121,0.077,���k��,7.3,��
2022/12/24,13:10,0.151,0.136,0.213,0.210,0.212,0.120,0.077,��,9.2,��
2022/12/24,13:20,0.151,0.137,0.212,0.210,0.211,0.121,0.077,���k��,8.2,��
2022/12/24,13:30,0.152,0.137,0.213,0.210,0.211,0.120,0.077,���k��,9.5,��
2022/12/24,13:40,0.150,0.137,0.214,0.209,0.212,0.121,0.076,�k��,11.7,��
2022/12/24,13:50,0.151,0.138,0.213,0.209,0.212,0.120,0.077,���k��,7.4,��
2022/12/24,14:00,0.152,0.137,0.213,0.210,0.211,0.121,0.077,�k��,7.3,��
2022/12/24,14:10,0.152,0.137,0.213,0.209,0.210,0.121,0.077,���k��,6.8,��
2022/12/24,14:20,0.152,0.137,0.214,0.209,0.213,0.120,0.076,���k��,6.4,��
2022/12/24,14:30,0.152,0.137,0.213,0.211,0.210,0.120,0.077,���k��,7.7,��
2022/12/24,14:40,0.152,0.137,0.214,0.209,0.213,0.120,0.077,�k��,6.7,��
2022/12/24,14:50,0.152,0.138,0.212,0.210,0.211,0.120,0.076,���k��,7.3,��
2022/12/24,15:00,0.153,0.137,0.214,0.210,0.211,0.119,0.076,���k��,4.7,��
2022/12/24,15:10,0.152,0.137,0.214,0.210,0.211,0.121,0.077,���k��,4.8,��
2022/12/24,15:20,0.151,0.137,0.213,0.210,0.211,0.120,0.077,���k��,7.4,��
2022/12/24,15:30,0.152,0.138,0.211,0.210,0.211,0.121,0.077,��,7.5,�L
2022/12/24,15:40,0.151,0.138,0.213,0.209,0.211,0.121,0.076,���k��,6.0,��
2022/12/24,15:50,0.152,0.138,0.213,0.210,0.211,0.121,0.076,���k��,4.8,��
2022/12/24,16:00,0.152,0.137,0.213,0.211,0.211,0.121,0.076,��,4.2,��
2022/12/24,16:10,0.151,0.138,0.214,0.211,0.211,0.121,0.076,��,4.8,��
2022/12/24,16:20,0.152,0.136,0.213,0.211,0.211,0.121,0.077,��,5.3,��
2022/12/24,16:30,0.152,0.138,0.213,0.210,0.211,0.121,0.077,���k��,6.0,��
2022/12/24,16:40,0.152,0.137,0.214,0.210,0.211,0.121,0.077,��,4.8,��
2022/12/24,16:50,0.151,0.137,0.213,0.210,0.211,0.121,0.076,��,4.3,��
2022/12/24,17:00,0.152,0.137,0.213,0.210,0.211,0.121,0.077,��,7.1,��
2022/12/24,17:10,0.152,0.138,0.213,0.210,0.210,0.120,0.077,���k��,7.1,��
2022/12/24,17:20,0.151,0.137,0.214,0.210,0.210,0.120,0.076,��,8.4,�L
2022/12/24,17:30,0.152,0.138,0.214,0.211,0.211,0.121,0.077,��,6.4,�L
2022/12/24,17:40,0.152,0.137,0.213,0.210,0.211,0.121,0.077,��,5.0,�L
2022/12/24,17:50,0.152,0.138,0.214,0.211,0.211,0.121,0.077,���k��,3.7,��
2022/12/24,18:00,0.151,0.138,0.213,0.210,0.211,0.120,0.076,���k��,6.5,��
2022/12/24,18:10,0.152,0.138,0.214,0.212,0.210,0.121,0.077,���k��,5.4,��
2022/12/24,18:20,0.152,0.137,0.213,0.210,0.210,0.120,0.076,���k��,5.8,��
2022/12/24,18:30,0.152,0.137,0.213,0.210,0.212,0.121,0.077,���k��,7.4,��
2022/12/24,18:40,0.152,0.138,0.213,0.211,0.211,0.120,0.077,���k��,8.1,�L
2022/12/24,18:50,0.152,0.137,0.213,0.211,0.210,0.121,0.077,��,7.9,��
2022/12/24,19:00,0.152,0.137,0.213,0.210,0.210,0.121,0.077,��,7.3,��
2022/12/24,19:10,0.151,0.138,0.214,0.210,0.211,0.120,0.077,��,5.2,�L
2022/12/24,19:20,0.153,0.137,0.213,0.211,0.212,0.120,0.077,���k��,3.8,��
2022/12/24,19:30,0.152,0.138,0.213,0.211,0.211,0.121,0.077,���k��,1.8,��
2022/12/24,19:40,0.151,0.138,0.214,0.210,0.212,0.120,0.077,���k��,1.7,��
2022/12/24,19:50,0.152,0.137,0.212,0.210,0.212,0.121,0.076,��쓌,0.7,��
2022/12/24,20:00,0.152,0.138,0.213,0.210,0.211,0.121,0.077,���쓌,2.1,��
2022/12/24,20:10,0.151,0.138,0.213,0.211,0.211,0.120,0.077,�쓌,0.8,��
2022/12/24,20:20,0.152,0.137,0.212,0.211,0.212,0.121,0.077,-,CALM,��
2022/12/24,20:30,0.153,0.137,0.213,0.210,0.211,0.121,0.077,��,1.8,��
2022/12/24,20:40,0.151,0.137,0.213,0.210,0.211,0.121,0.076,���k��,2.9,��
2022/12/24,20:50,0.152,0.137,0.212,0.210,0.212,0.120,0.077,�k��,4.4,��
2022/12/24,21:00,0.152,0.137,0.214,0.211,0.211,0.120,0.076,�k��,5.1,��
2022/12/24,21:10,0.152,0.137,0.214,0.209,0.211,0.121,0.077,�k��,2.7,��
2022/12/24,21:20,0.152,0.137,0.214,0.210,0.210,0.121,0.077,-,CALM,��
2022/12/24,21:30,0.152,0.138,0.213,0.210,0.211,0.120,0.077,���k��,1.8,��
2022/12/24,21:40,0.152,0.137,0.213,0.210,0.211,0.121,0.076,�k��,2.4,��
2022/12/24,21:50,0.152,0.138,0.213,0.210,0.211,0.121,0.077,�k��,3.3,��
2022/12/24,22:00,0.152,0.136,0.213,0.210,0.211,0.121,0.077,���k��,2.1,��
2022/12/24,22:10,0.152,0.138,0.213,0.210,0.211,0.121,0.077,�k��,1.0,��
2022/12/24,22:20,0.151,0.138,0.213,0.210,0.211,0.120,0.077,��,2.9,��
2022/12/24,22:30,0.151,0.138,0.213,0.209,0.211,0.120,0.076,�k��,3.1,��
2022/12/24,22:40,0.151,0.136,0.213,0.210,0.212,0.121,0.077,���k��,3.7,��
2022/12/24,22:50,0.151,0.137,0.213,0.209,0.211,0.122,0.077,���k��,3.9,��
2022/12/24,23:00,0.152,0.137,0.212,0.211,0.211,0.121,0.076,�k��,1.5,��
2022/12/24,23:10,0.150,0.137,0.213,0.210,0.210,0.120,0.076,�k�k��,2.0,��
2022/12/24,23:20,0.152,0.138,0.214,0.211,0.210,0.120,0.077,���k��,1.4,��
2022/12/24,23:30,0.151,0.137,0.213,0.210,0.212,0.121,0.078,���k��,3.0,��
2022/12/24,23:40,0.152,0.137,0.213,0.210,0.211,0.121,0.077,���k��,3.3,��
2022/12/24,23:50,0.151,0.137,0.213,0.210,0.211,0.121,0.076,��,4.2,��
